CDT,Max TemperatureF,Mean TemperatureF,Min TemperatureF,Max Dew PointF,MeanDew PointF,Min DewpointF,Max Humidity, Mean Humidity, Min Humidity, Max Sea Level PressureIn, Mean Sea Level PressureIn, Min Sea Level PressureIn, Max VisibilityMiles, Mean VisibilityMiles, Min VisibilityMiles, Max Wind SpeedMPH, Mean Wind SpeedMPH, Max Gust SpeedMPH,PrecipitationIn, CloudCover, Events, WindDirDegrees
2013-5-1,70,55,40,50,43,34,85,65,44,30.27,30.07,29.83,10,10,8,32,17,39,0.03,6,Rain-Thunderstorm,21
2013-5-2,41,37,33,37,34,32,100,93,85,30.47,30.40,30.25,10,4,1,31,17,39,0.78,8,Rain-Snow,359
2013-5-3,41,39,36,36,34,30,92,81,70,30.34,30.12,29.97,10,9,2,26,17,33,0.05,8,Rain,351
2013-5-4,51,43,35,48,40,33,100,90,80,30.07,29.94,29.86,10,5,2,21,14,26,0.18,8,Rain-Snow,355
2013-5-5,55,50,45,50,47,43,100,89,77,30.14,30.10,30.06,10,9,6,17,10,21,0.00,8,,342
2013-5-6,68,58,47,56,51,48,100,82,63,30.13,30.09,30.03,10,7,0,14,6,16,0.00,5,Fog,337
2013-5-7,77,61,44,55,48,44,100,68,36,30.11,30.05,29.96,10,4,0,10,2,14,0.00,3,Fog,192
2013-5-8,77,63,49,58,55,47,93,72,50,29.98,29.94,29.88,10,10,10,22,8,28,0.02,5,Rain-Thunderstorm,172
2013-5-9,71,63,55,61,59,55,100,83,66,29.92,29.89,29.82,10,8,2,17,6,21,0.35,6,Rain-Thunderstorm,273
2013-5-10,71,59,47,56,51,45,93,67,40,30.06,30.00,29.94,10,10,7,20,10,23,0.00,6,,353
2013-5-11,67,54,40,47,33,22,100,60,19,30.26,30.16,30.05,10,10,7,32,14,43,0.00,0,,355
2013-5-12,67,50,32,39,29,21,89,54,18,30.30,30.23,30.14,10,10,10,10,2,15,0.00,1,,318
2013-5-13,81,62,42,55,45,38,86,57,27,30.16,30.05,29.89,10,10,10,21,8,24,0.00,0,,182
2013-5-14,96,75,54,55,49,43,86,52,17,29.88,29.79,29.71,10,10,10,30,13,40,0.00,0,,207
2013-5-15,90,75,60,63,57,50,78,55,31,29.87,29.82,29.76,10,10,10,23,8,28,0.00,1,,199
2013-5-16,84,72,59,63,60,56,100,70,40,29.88,29.84,29.77,10,8,0,18,7,25,0.00,1,Fog,182
2013-5-17,81,70,59,61,59,57,90,69,48,29.94,29.89,29.84,10,10,8,13,6,15,0.00,2,,161
2013-5-18,86,72,57,68,62,55,90,71,51,29.91,29.83,29.71,10,10,9,48,10,60,0.03,2,,141
2013-5-19,84,73,61,70,62,58,87,69,51,29.85,29.67,29.54,10,8,2,47,11,59,0.45,4,Rain-Thunderstorm,185
2013-5-20,82,71,60,62,57,53,90,67,43,29.71,29.65,29.59,10,10,10,17,11,24,0.00,0,,202
2013-5-21,76,67,57,54,48,43,80,58,35,29.73,29.70,29.65,10,10,8,23,11,31,0.00,1,,264
2013-5-22,68,61,53,49,48,47,77,65,52,29.95,29.81,29.73,10,10,10,18,11,22,0.00,7,,292
2013-5-23,70,60,50,52,48,46,83,65,47,30.24,30.11,29.95,10,10,10,20,8,23,0.00,5,,5
2013-5-24,74,59,43,50,45,42,93,64,35,30.32,30.24,30.12,10,9,2,23,10,28,0.00,1,,136
2013-5-25,87,75,63,62,56,44,68,55,42,30.15,30.07,29.98,10,10,10,26,13,33,T,5,Rain,178
2013-5-26,87,77,67,66,64,62,84,66,48,30.02,29.94,29.84,10,10,10,22,13,26,0.00,6,,171
2013-5-27,79,71,62,67,62,57,90,78,66,29.95,29.80,29.63,10,8,1,31,15,43,2.93,6,Rain-Thunderstorm,115
2013-5-28,82,72,62,71,65,55,100,83,65,29.85,29.72,29.64,10,7,0,35,10,49,2.22,7,Fog-Rain-Thunderstorm,192
2013-5-29,82,74,66,68,64,61,87,75,62,29.79,29.71,29.58,10,10,10,30,17,41,0.03,6,Rain,166
2013-5-30,74,69,63,66,61,60,93,81,68,29.70,29.65,29.58,10,8,2,24,12,63,0.44,5,Rain,180
2013-5-31,79,72,64,65,61,57,87,73,58,29.77,29.70,29.59,10,10,7,31,8,39,0.03,3,Rain,177